Regional Weather Roundup
Issued by NWS Grand Forks, ND

Home | Current Version | Previous Version | Text Only | Print | Product List | Glossary Off
Versions: 1 2 3 4 5 6 7 8 9 10 11 12 13 14 15 16 17 18 19 20 21 22 23 24 25 26 27 28 29 30 31 32 33 34 35 36 37 38 39 40 41 42 43 44 45 46 47 48 49 50

000
ASUS43 KFGF 241710
RWRFGF
PRAIRIE TO PINES  WEATHER ROUNDUP
NATIONAL WEATHER SERVICE EASTERN NORTH DAKOTA/GRAND FORKS ND
1200 PM CDT SUN SEP 24 2017

 **SATELLITE DATA USED TO AUGMENT SKY COVER AT AUTOMATED STATIONS**
 *****  WEATHER ACROSS EASTERN NORTH DAKOTA  *****

CITY           SKY/WX    TMP DP  RH WIND       PRES   REMARKS
GRAND FORKS    LGT RAIN  54  53  97 N17       29.85F
GRAND FRKS AFB RAIN      52  52 100 N16       29.88F
DEVILS LAKE    LGT RAIN  47  46  97 N20G30    29.92F
FARGO          RAIN      56  55  97 N9        29.82F FOG
WAHPETON ARPT  CLOUDY    63  61  94 S6        29.83R
$$

 ***** WEATHER ACROSS CENTRAL AND WESTERN NORTH DAKOTA  *****

CITY           SKY/WX    TMP DP  RH WIND       PRES   REMARKS
BISMARCK       LGT RAIN  50  49  96 N9        30.00S
MINOT          CLOUDY    49  46  90 NW15      30.02S
JAMESTOWN      LGT RAIN  50  49  96 N16       29.88F
MINOT AFB      LGT RAIN  47  45  92 N13       30.02R
GARRISON         N/A     46  44  93 N10G18    30.03R
WILLISTON      CLOUDY    46  41  82 N10       30.10S
DICKINSON      CLOUDY    45  43  93 N13G20    30.05R
HETTINGER      CLOUDY    45  43  93 N10       30.06R FOG
$$

 *****  OTHER AIRPORT OBSERVATIONS IN OUR AREA  *****

CITY           SKY/WX    TMP DP  RH WIND       PRES   REMARKS
WALHALLA       LGT RAIN N/A N/A N/A N14G24    29.94R
GRAFTON AIRPOR NOT AVBL
VALLEY CITY AR NOT AVBL
CANDO          RAIN      48  48 100 N14G21    29.96F
CAVALIER APRT  LGT RAIN  50  50 100 N16       29.92R
GWINNER        CLOUDY    54  54 100 NW7G13    29.87R
SHEYENNE NWR     N/A     55  55 100 NW6       29.95S
ROLLA          LGT RAIN  46  46 100 N21G29    29.97F
 ***** THE ABOVE OBSERVATIONS ARE NON NWS ARE NOT QUALITY
       CONTROLLED AND MAY MIS-REPORT RAIN FOR SNOW...
$$

  *****  WEATHER ACROSS NORTHERN MINNESOTA  *****

CITY           SKY/WX    TMP DP  RH WIND       PRES   REMARKS
FLAG ISLAND    DRIZZLE   55  54  94 N8        29.84R
WARROAD        NOT AVBL
ROSEAU         LGT RAIN  55  52  88 N6        29.85F
HALLOCK        RAIN      54  52  94 N12       29.89R
THF RVR FALLS  LGT RAIN  57  56  96 N10       29.84F
BAUDETTE       CLOUDY    62  61  96 SW7       29.84R
WASKISH        CLOUDY    64  64 100 S5        29.84R
CROOKSTON      LGT RAIN  54  54 100 N13       29.84S
STEPHEN NDAWN    N/A     54  54 100 N14         N/A
GREENBUSH NDAW   N/A     54  54 100 N6          N/A
$$
  *****  WEATHER ACROSS CENTRAL AND WEST MINNESOTA  *****

CITY           SKY/WX    TMP DP  RH WIND       PRES   REMARKS
FOSSTON        CLOUDY    63  61  94 S9        29.84R
BEMIDJI        CLOUDY    67  64  91 S8        29.84F
PARK RAPIDS    CLOUDY    72  66  81 S14       29.84F
ELBOW LAKE     PTSUNNY   73  66  81 W15       29.84S HAZE
WADENA         FAIR      73  64  73 S17G23    29.84F
DETROIT LAKES  CLOUDY    68  63  83 S9        29.84S
MOORHEAD       RAIN      57  55  94 N6        29.83S
FERGUS FALLS   PTSUNNY   70  68  94 SW14      29.83S
MORRIS MN      NOT AVBL
STAPLES        FAIR      75  66  73 S15       29.86S
$$
  *****  WEATHER ELSEWHERE ACROSS MINNESOTA  *****

CITY           SKY/WX    TMP DP  RH WIND       PRES   REMARKS
DULUTH         FAIR      73  67  81 S12       29.94S
INTRNTL FALLS  CLOUDY    67  64  90 VRB5      29.85S
ELY            FAIR      77  64  65 S12G17    29.91S
CLOQUET        FAIR      77  66  69 SE6       29.92F
WHEATON        FAIR      70  63  78 SW9       29.85S
BRAINERD       FAIR      75  67  76 S10       29.87F
HIBBING        FAIR      75  67  76 VRB7      29.90S
ALEXANDRIA     FAIR      76  66  71 S15G22    29.87F
SAINT CLOUD    FAIR      80  68  66 S16G25    29.89F
MINNEAPOLIS    PTSUNNY   86  68  54 S10G18    29.93F
$$

  *****  WEATHER ACROSS SOUTH DAKOTA  *****

CITY           SKY/WX    TMP DP  RH WIND       PRES   REMARKS
SIOUX FALLS    CLOUDY    79  68  69 S22       29.87R
BROOKINGS      PTSUNNY   73  66  78 SW16G22   29.88R
WATERTOWN      CLOUDY    63  61  93 W10       29.87R
HURON          LGT RAIN  57  56  96 NW7       29.88S
SISSETON         N/A     66  63  90 SW6       29.83S
ABERDEEN       LGT RAIN  53  53 100 N10       29.89R
MITCHELL       LGT RAIN  59  56  89 NW3       29.91R
PIERRE         CLOUDY    52  48  86 NW15      29.97R
MOBRIDGE       CLOUDY    52  49  89 N18G28    29.91F
RAPID CITY     CLOUDY    46  43  87 NW15      30.05R
$$

  *****  SOME WEATHER IN NEARBY STATES *****

CITY           SKY/WX    TMP DP  RH WIND       PRES   REMARKS
GLASGOW MT     CLOUDY    50  41  71 W3        30.12S
GREAT FALLS MT FAIR      48  32  53 W5        30.10S
CHEYENNE WY    LGT RAIN  41  40  96 NE10      30.03R FOG
SCOTTSBLUFF NE CLOUDY    49  43  80 N5        30.04S
OMAHA NE       PTSUNNY   83  66  56 S10       29.92S
DES MOINES IA  FAIR      87  64  46 S12       29.96F
DAVENPORT IA   FAIR      85  65  51 SE9       30.06F
CHICAGO IL     FAIR      89  62  40 SW9       30.08F
EAU CLAIRE WI  FAIR      85  62  46 S15       29.97F
LA CROSSE WI   FAIR      87  64  46 S13       29.99F
$$

  *****  SOME NATIONAL WEATHER *****

CITY           SKY/WX    TMP DP  RH WIND       PRES   REMARKS
LA GUARDIA NY  FAIR      87  64  46 NE9       30.05F
RALEIGH NC     PTSUNNY   83  63  50 NE10      30.08F
ATLANTA GA     PTSUNNY   81  61  50 E14       30.08F
NEW ORLEANS LA FAIR      85  73  67 NE13      29.93F HX  91
OKLAHOMA CITY  PTSUNNY   84  65  52 S14G26    29.95F
ALBUQUERQUE NM FAIR      63  25  23 SW3       30.00S
SALT LAKE CITY LGT RAIN  46  42  86 NW15      29.94R
LOS ANGELES CA FAIR      73  52  47 VRB3      29.90R
BOISE ID       FAIR      49  35  58 NW6       30.06S
SEATTLE WA     PTSUNNY   57  51  80 CALM      30.16F
$$

*** WEATHER ACROSS MANITOBA...SASKATCHEWAN AND ONTARIO ***
                ***ONTARIO***

CITY           SKY/WX    TMP DP  RH WIND       PRES   REMARKS
GERALDTON      FOG       63  63 100 E9        29.97F VSB 3/4
THUNDER BAY    PTSUNNY   70  66  88 E12       29.95F
SIOUX LOOKOUT  LGT RAIN  59  59 100 E5        29.85F FOG
TORONTO        MOSUNNY   90  66  45 NW3       30.13F HX  92
BIG TROUT LK   LGT RAIN  46  46 100 NE7       30.08F
PICKLE LAKE    LGT RAIN  52  52 100 E9        29.94F FOG
DRYDEN         CLOUDY    61  59  94 SE5       29.85R
KENORA         LGT RAIN  55  55 100 N6        29.85F FOG
$$
                *** MANITOBA***

CITY           SKY/WX    TMP DP  RH WIND       PRES   REMARKS
BRANDON        CLOUDY    50  46  87 N15       30.03F
DAUPHIN        LGT RAIN  50  48  93 N13       30.08S
ISLAND LAKE    NOT AVBL
PILOT MOUND      N/A     48  45  87 N17G24      N/A
THE PAS        CLOUDY    48  41  76 E7        30.16R
THOMPSON       CLOUDY    43  37  81 E6        30.20F
WINNIPEG       LGT RAIN  50  50 100 N14G21    29.94R FOG
LYNN LAKE      CLOUDY    43  37  81 E3        30.19F
CHURCHILL      PTSUNNY   41  32  70 VRB2      30.26F
GILLAM         CLOUDY    41  34  75 E6        30.22F
$$
                ***SASKATCHEWAN***

CITY           SKY/WX    TMP DP  RH WIND       PRES   REMARKS
ESTEVAN        LGT RAIN  46  43  87 N12       30.09S
KINDERSLEY     MOSUNNY   50  37  62 E6        30.10F
LLOYDMINSTER   MOSUNNY   52  39  62 S10       30.08S
PRINCE ALBERT  PTSUNNY   48  43  81 E3        30.15S
REGINA         MOSUNNY   50  36  57 N6        30.12F
YORKTON        CLOUDY    50  41  71 N10       30.11F
N. BATTLEFORD  SUNNY     50  37  62 S5        30.14S
LA RONGE       PTSUNNY   48  45  87 S6        30.13S
SASKATOON      MOSUNNY   52  41  66 VRB3      30.14S
SWIFT CURRENT    N/A     50  37  62 S7        30.10F
$$
NOTE: THESE ARE AUTOMATED STATIONS WITH LIMITED QUALITY CONTROL
      "FAIR" INDICATES FEW OR NO CLOUDS BELOW 12,000 FEET WITH NO
      SIGNIFICANT WEATHER AND/OR OBSTRUCTIONS TO VISIBILITY.
      SKY/WX - SKY CONDITION AND SIGNIFICANT WEATHER.
      TMP - AIR TEMPERATURE.    DP   - DEWPOINT TEMPERATURE.
      RH  - RELATIVE HUMIDITY.  PRES - PRESSURE.
      HX  - HEAT INDEX.         WCI  - WIND CHILL INDEX.
$




USA.gov is the U.S. government's official web portal to all federal, state and local government web resources and services.